Temp
21 20 20 19 19 19 19 19 19 19 19 19 18 17 17 18 18 17 17 18 18 18 17 17 18 18 18 19 19 19 18 18 18 18 18 17 17 17 17 17 17 17 16 16 16 16 16 15 16 16 15 16 16 16 16 16 16 16 17 17 17 18 18 18 17 18 18 17 17 17 17 17 17 17 17 18 18 17 17 17 17 17 17 17 16
21 20 20 19 19 19 19 19 20 20 20 19 19 18 17 18 18 18 18 18 18 18 18 18 18 19 19 20 20 19 19 19 19 18 17 17 17 17 17 17 17 17 17 16 16 16 16 16 16 15 15 16 16 16 16 16 16 16 16 17 17 17 17 17 17 17 18 19 19 19 18 17 17 17 17 17 18 18 18 18 17 18 18 17 17
21 20 20 20 20 19 19 19 20 20 20 19 19 18 17 17 17 18 18 18 18 18 18 18 19 19 19 20 20 20 19 19 19 18 18 17 17 17 17 17 17 17 17 16 16 16 16 16 16 15 15 15 16 16 16 16 15 16 16 17 17 17 16 17 16 17 18 19 19 19 19 18 17 18 18 17 17 17 18 18 18 18 18 18 17
21 20 21 20 20 20 20 19 20 20 20 19 19 19 18 18 18 18 19 19 19 18 19 19 19 18 18 18 18 19 18 18 18 18 18 18 17 17 17 17 17 17 17 17 17 16 16 16 16 16 16 15 16 16 16 16 15 15 16 16 17 17 16 16 16 16 17 19 19 19 19 18 17 18 18 17 17 18 18 18 18 18 18 18 18
22 21 21 21 21 21 20 20 20 20 20 20 20 20 20 19 19 18 19 19 19 19 19 19 18 18 18 18 18 18 18 18 18 18 18 18 18 18 17 17 17 17 17 17 17 16 16 16 16 16 16 16 16 16 16 16 16 16 16 16 16 17 17 16 16 16 16 17 18 18 19 18 16 18 19 17 17 18 18 18 18 18 18 18 18
23 22 22 22 21 21 21 21 20 20 20 20 20 20 20 20 19 19 19 20 19 19 19 18 18 18 18 18 19 19 19 19 19 19 18 18 18 18 17 17 17 17 17 17 17 17 16 16 16 17 17 16 16 17 17 16 16 16 16 17 17 16 17 16 16 16 16 16 17 17 17 17 17 19 19 18 17 17 18 18 18 18 18 18 18
23 23 23 22 22 21 21 21 21 20 20 20 20 20 20 20 19 19 19 20 19 19 19 18 18 19 19 19 20 20 20 19 19 18 18 18 18 17 17 17 17 17 17 17 17 17 16 16 16 16 17 17 17 17 17 17 17 17 17 17 17 16 16 16 16 16 16 16 16 17 16 17 18 19 19 18 18 17 17 18 18 17 17 17 17
23 23 23 23 23 22 21 21 20 20 20 20 20 20 20 19 19 19 19 19 19 19 18 18 19 19 19 20 20 20 19 19 18 18 18 18 17 17 17 17 17 17 17 17 17 17 16 16 16 16 17 17 17 17 17 17 17 17 16 16 16 16 16 16 16 16 17 17 16 16 17 17 18 18 19 19 19 18 17 17 17 16 16 16 16
23 23 23 23 23 23 22 21 21 21 20 20 20 20 19 19 19 19 19 19 19 18 18 18 19 19 19 20 20 19 19 18 18 18 17 17 17 17 17 17 17 17 17 16 17 17 17 16 16 16 16 17 17 17 17 16 16 16 16 16 16 16 16 16 16 17 18 17 17 17 18 18 18 18 19 20 20 19 17 17 16 16 16 16 16
24 23 23 23 23 23 22 21 21 21 20 20 20 19 19 19 19 19 19 18 18 18 18 18 18 19 19 19 19 19 18 18 18 17 17 17 17 17 17 17 17 17 16 16 16 16 16 16 16 16 16 16 17 16 16 16 16 16 16 16 16 16 16 16 17 17 17 17 17 18 18 18 19 19 19 19 20 20 19 18 17 17 17 16 16
24 24 23 23 23 23 22 21 21 20 20 20 20 19 19 19 19 19 18 18 18 18 18 18 18 19 19 19 19 19 18 18 18 17 17 18 17 17 17 17 17 17 17 16 16 16 16 16 16 16 16 16 16 16 16 16 16 16 16 16 16 16 16 16 16 17 17 16 17 18 19 19 19 19 19 19 20 20 19 19 19 18 18 17 16
24 24 23 23 22 22 22 21 21 20 19 19 19 19 18 18 19 18 18 17 18 18 18 18 18 18 18 19 19 18 18 18 18 17 18 18 18 17 17 17 17 17 17 16 16 16 16 16 16 16 16 16 16 16 16 16 16 16 16 16 16 16 16 16 16 16 16 17 17 17 18 18 19 19 19 19 19 20 19 19 20 19 18 18 17
24 24 23 22 22 22 22 21 19 17 17 16 16 16 16 17 17 17 17 17 17 17 17 18 18 18 18 18 18 18 18 18 18 18 18 18 18 17 17 17 17 17 17 17 16 16 16 16 16 16 16 15 16 16 16 16 16 16 16 16 16 16 16 16 16 16 16 16 17 17 17 18 18 18 19 19 19 19 19 20 20 20 19 18 17
24 24 23 22 22 23 22 20 18 16 16 17 16 15 15 15 15 15 15 16 17 17 17 17 17 18 18 18 18 18 18 18 18 18 18 18 18 17 17 17 17 17 17 16 16 16 16 15 15 15 15 15 15 15 15 15 16 17 16 16 16 16 16 16 16 16 16 17 17 17 18 18 18 18 18 19 19 19 19 20 20 19 19 19 19
24 23 23 22 23 22 20 19 18 17 17 17 16 15 16 16 16 15 16 16 15 16 17 17 18 18 18 18 18 18 18 18 18 18 17 17 17 17 17 17 17 17 16 16 15 15 15 15 15 15 15 15 15 15 15 15 16 16 16 16 16 16 16 16 16 16 16 16 17 17 17 17 18 18 18 19 19 19 19 19 20 19 19 19 19
23 22 22 21 21 20 19 19 18 18 17 15 15 15 16 17 17 17 17 16 15 16 17 18 19 19 19 18 17 18 17 18 18 17 17 17 17 17 17 17 17 16 16 15 15 15 15 15 15 15 14 15 15 15 15 15 15 16 16 15 15 16 16 16 16 16 16 16 16 17 17 17 17 17 18 18 18 19 19 19 19 19 19 19 19
22 21 21 21 20 20 19 19 18 17 16 15 14 15 16 16 16 17 18 16 15 16 18 18 19 19 19 18 17 17 17 17 17 16 16 16 17 17 17 16 16 16 16 15 15 15 15 15 15 15 14 15 15 15 15 15 15 15 15 15 15 15 15 15 16 16 15 16 16 16 17 17 17 17 17 17 17 18 18 18 19 20 20 19 19
21 21 20 20 20 19 18 17 17 17 17 15 14 15 15 15 16 17 16 15 14 15 17 18 18 18 18 18 18 17 17 17 16 16 16 16 16 17 16 16 16 16 15 15 15 15 15 15 15 15 15 15 15 15 15 15 15 15 15 15 15 15 15 15 15 15 15 15 16 16 16 16 16 16 16 16 17 17 18 18 18 19 19 20 20
20 20 19 19 19 18 17 16 16 16 16 16 15 15 14 15 17 16 15 14 14 15 16 17 17 17 17 17 18 17 17 16 16 16 16 16 16 16 16 16 16 16 16 15 16 16 15 15 15 15 15 15 15 15 15 15 15 15 15 15 15 15 15 15 15 15 15 15 15 15 16 16 16 16 16 16 16 17 18 18 18 18 18 19 19
20 20 19 19 18 18 17 16 16 15 15 15 15 15 15 15 16 16 15 15 15 15 16 16 16 16 16 16 17 17 16 16 17 17 16 16 16 16 16 16 16 16 16 16 16 16 16 16 16 15 15 15 15 15 15 15 15 15 16 16 15 15 16 15 15 15 15 15 15 16 16 16 16 16 16 16 16 16 17 17 17 17 17 17 18
19 19 18 18 18 17 17 17 16 15 15 15 15 16 15 15 15 15 16 17 16 16 16 17 17 16 16 16 16 16 16 17 17 16 16 16 16 16 16 16 16 16 16 16 16 16 16 16 16 16 16 15 15 15 15 15 15 15 15 15 15 16 16 16 15 15 16 16 16 16 16 15 16 16 16 16 16 16 16 17 17 17 17 17 17
18 18 18 18 17 17 16 16 16 16 16 16 16 16 16 16 16 16 17 17 17 17 17 17 17 16 16 16 16 16 16 16 16 16 16 16 16 16 15 15 15 15 16 16 16 16 16 16 16 16 16 16 15 15 15 15 15 15 15 15 15 16 16 16 16 16 16 16 16 16 16 15 15 16 16 17 17 17 17 17 17 17 17 16 17
17 18 18 18 18 18 18 17 16 16 15 16 16 17 17 17 17 17 17 18 18 18 17 17 17 16 16 16 16 16 16 16 16 15 15 15 15 15 15 15 15 15 15 16 16 16 16 16 16 16 16 16 16 15 15 15 15 15 15 15 15 15 15 15 16 16 16 16 15 16 15 15 15 15 16 16 16 17 17 17 16 16 16 16 16
17 17 18 18 18 18 19 18 17 16 16 15 16 16 17 17 17 17 17 17 17 17 17 17 17 16 16 16 16 16 16 16 16 16 15 15 15 15 15 15 15 15 15 15 15 16 16 16 16 16 16 16 16 15 15 15 15 15 15 15 15 15 15 15 16 16 16 16 15 16 15 15 15 15 15 16 16 16 17 16 16 16 16 15 15
17 17 17 17 17 17 18 19 18 17 17 16 16 15 15 16 16 17 17 17 17 17 17 17 17 16 16 16 16 16 16 16 16 16 15 15 15 15 15 15 15 15 15 15 15 15 16 16 16 16 16 16 16 16 16 15 15 15 15 15 15 15 15 15 15 15 15 15 15 15 15 15 15 15 15 15 15 15 16 16 16 16 16 15 15
16 16 16 16 17 17 17 17 17 17 17 17 16 16 16 15 16 16 16 16 16 16 16 16 17 17 16 16 16 16 16 16 16 16 16 15 15 15 15 15 15 16 15 15 15 15 16 16 16 16 16 16 16 16 16 16 15 15 15 15 15 15 15 15 15 15 15 15 15 15 15 15 15 15 15 15 15 15 15 16 16 16 16 15 14
16 16 15 16 16 16 16 16 16 17 17 17 16 16 16 16 16 16 16 16 16 16 16 16 16 16 16 16 16 16 16 16 16 16 16 15 16 16 16 16 16 16 16 16 16 16 16 16 16 16 16 16 16 16 16 16 16 15 15 15 15 15 15 15 15 15 15 15 15 15 15 14 14 14 14 14 14 14 14 15 15 15 15 15 15
15 15 15 15 15 16 16 16 16 16 16 16 16 16 15 15 16 16 16 16 16 16 16 16 16 16 16 16 16 16 16 16 16 16 16 16 16 16 16 16 16 16 16 16 16 16 16 16 16 16 16 16 15 15 15 15 15 15 15 15 15 15 15 15 15 15 15 15 15 14 14 14 14 14 13 13 13 13 14 15 14 14 14 14 15
15 15 15 15 15 15 16 16 16 16 16 16 16 16 15 15 15 15 15 15 15 16 16 16 16 16 16 16 16 15 15 15 15 16 16 16 16 16 16 16 16 16 16 16 16 16 16 16 16 15 15 15 14 15 15 15 15 15 15 15 15 15 15 15 15 15 15 15 15 15 14 14 14 14 13 13 13 13 14 14 14 13 13 14 14
15 15 15 15 15 15 15 15 15 15 16 16 16 16 16 15 15 15 15 15 15 15 16 16 16 16 16 16 16 15 15 15 15 16 16 16 16 16 16 16 16 16 16 16 16 16 16 16 15 15 15 15 14 14 15 15 14 14 14 14 14 14 14 15 15 15 15 15 14 14 14 14 14 14 13 13 13 13 13 13 13 13 13 13 14
14 14 14 14 15 15 15 15 15 15 15 15 15 15 15 15 15 16 15 15 15 15 15 16 16 16 15 16 16 15 15 15 15 15 15 15 16 15 15 15 16 16 16 16 16 16 15 15 15 15 15 15 15 14 15 15 14 14 14 14 14 14 14 14 14 14 14 14 14 14 14 14 13 13 13 13 13 12 12 12 12 12 12 13 13
14 14 14 14 14 14 14 14 14 15 15 15 15 15 15 15 15 15 15 15 15 15 15 15 15 15 15 15 15 15 15 15 15 15 15 15 15 15 15 15 15 15 15 15 15 15 15 15 15 14 14 14 14 15 15 14 14 14 14 14 14 14 14 14 14 14 14 14 13 14 14 14 13 13 13 13 13 13 12 12 12 12 12 12 12
12 12 12 12 13 13 13 13 14 14 14 14 14 14 14 14 15 15 15 16 16 16 16 16 16 16 15 15 15 15 15 15 15 15 15 15 15 15 14 14 14 14 14 14 14 14 14 14 14 14 14 14 14 14 14 14 14 15 15 14 14 14 14 13 13 13 13 13 13 14 14 14 13 12 12 12 12 12 12 12 11 11 11 11 11
10 10 11 11 11 11 11 12 12 12 13 13 13 14 14 14 15 15 15 15 16 16 16 16 16 16 16 16 16 16 15 15 15 15 15 14 14 14 14 14 14 14 14 14 14 14 14 14 14 14 14 13 13 14 14 14 14 15 15 14 13 13 13 13 13 13 13 13 13 14 14 14 13 12 12 12 11 12 12 11 10 10 10 11 11
8 9 10 10 9 9 9 10 10 11 11 12 12 13 14 14 14 15 15 15 15 15 15 15 15 15 15 15 16 16 16 15 15 15 15 15 14 14 14 14 14 14 14 14 14 14 14 14 14 14 14 13 13 13 13 13 14 14 14 13 13 13 13 13 13 13 13 13 13 13 13 13 13 12 12 11 11 11 11 10 10 10 10 10 10
8 8 9 9 9 9 8 8 10 10 10 10 10 11 13 14 14 14 15 15 15 15 15 15 15 15 15 15 15 15 15 15 15 15 15 15 15 15 14 14 14 14 14 14 14 14 14 14 14 13 14 13 13 12 13 13 13 13 13 13 13 13 13 12 12 12 12 12 12 12 13 13 12 12 12 11 10 10 10 10 11 10 10 9 10
9 9 9 9 10 10 9 9 10 10 9 10 10 11 12 13 13 14 14 15 15 15 15 15 15 15 15 15 15 15 15 15 15 15 15 15 15 15 15 14 14 14 14 14 13 14 14 14 13 13 13 13 12 12 13 12 12 13 13 13 13 13 12 12 12 12 12 12 12 12 12 12 11 12 12 11 10 10 11 11 11 10 10 9 9
9 9 9 9 9 9 10 10 10 10 9 9 10 10 11 12 12 13 13 14 14 14 14 14 14 14 14 14 14 14 15 15 15 15 15 15 15 15 15 15 14 14 14 14 13 13 13 13 13 13 13 13 12 12 12 12 12 12 13 13 13 13 12 12 12 12 11 11 12 12 12 11 11 12 11 11 10 11 11 11 11 10 10 10 9
9 8 9 9 9 9 9 9 9 9 9 9 9 9 10 11 11 11 12 13 13 13 13 13 13 13 13 14 14 14 14 14 14 15 14 14 15 15 15 15 14 15 14 14 14 13 13 13 12 12 12 12 12 12 12 12 12 13 13 14 14 14 13 13 12 12 11 11 11 11 11 11 11 11 11 10 10 11 11 11 11 11 11 10 9
8 7 7 8 8 8 9 9 8 8 8 8 8 9 9 10 10 10 11 12 11 11 11 12 12 12 12 13 13 13 13 14 14 14 14 14 14 15 15 14 14 15 15 14 14 14 13 13 12 12 12 12 12 12 12 12 13 13 13 14 14 14 13 13 13 12 11 11 10 10 10 10 11 11 10 10 10 10 10 10 10 11 11 10 8
8 7 7 8 8 8 8 8 8 7 7 7 8 8 9 9 10 10 10 11 10 10 10 11 11 11 12 12 13 13 13 13 13 13 13 13 14 14 14 14 14 15 15 14 14 14 13 12 12 12 12 12 12 12 12 13 13 13 13 13 14 14 13 13 13 12 12 11 10 9 9 10 10 10 10 10 9 9 10 10 10 10 10 9 8
7 7 7 7 7 8 7 7 7 7 7 7 7 7 8 8 9 9 10 10 9 9 9 10 10 11 11 11 12 12 12 12 12 13 13 13 13 14 14 14 14 15 14 14 14 14 13 13 12 12 12 12 12 12 12 12 12 12 12 13 13 13 13 13 13 12 12 11 10 9 9 9 9 9 9 9 9 9 9 9 8 8 8 7 7
7 7 7 6 7 7 7 7 7 6 6 6 6 6 7 7 8 8 8 8 8 8 9 9 9 9 10 10 11 11 11 11 12 12 13 13 13 13 13 13 14 14 14 14 14 14 14 13 13 12 12 12 12 12 12 12 12 12 12 12 12 12 12 12 13 12 12 11 9 9 9 8 8 8 8 8 8 8 8 8 7 7 7 7 6
7 7 6 6 6 6 6 6 6 6 5 5 5 6 6 6 6 7 7 7 7 7 8 8 8 9 9 10 10 11 11 11 12 12 12 13 13 13 13 13 14 14 14 14 14 14 14 14 13 13 12 11 11 11 12 12 12 12 11 11 11 11 11 12 12 12 11 10 9 9 9 8 7 8 8 8 7 7 7 7 6 6 6 6 6
6 6 5 5 5 6 6 6 6 5 5 5 5 5 5 5 5 5 5 5 6 6 7 7 8 8 9 9 10 10 11 11 11 12 12 12 13 13 13 13 14 14 14 14 14 14 14 14 13 12 12 11 11 11 11 11 11 11 11 11 10 10 10 11 11 10 10 9 9 9 8 7 7 7 7 7 6 6 6 6 6 5 5 6 6
6 5 5 4 5 5 5 5 5 5 5 5 5 5 5 5 5 5 5 5 5 5 5 6 7 8 8 9 9 10 10 11 11 11 12 12 13 13 13 13 13 13 13 14 14 14 14 14 13 13 12 12 11 10 10 10 10 10 10 10 10 10 10 10 10 9 9 9 8 8 7 6 6 6 6 5 5 5 5 5 5 5 5 6 6
5 5 4 4 5 5 5 5 5 5 6 6 6 6 6 6 6 6 5 5 5 5 5 5 5 6 7 8 9 9 10 10 11 11 12 12 12 13 13 13 12 12 12 12 11 12 13 14 14 13 12 11 11 10 10 9 9 10 10 10 9 9 9 9 9 9 8 8 7 7 6 6 6 5 5 5 5 5 5 5 5 5 5 5 5
5 4 4 4 5 5 5 5 6 6 7 7 6 6 6 6 6 5 5 5 5 5 5 5 5 5 6 7 8 9 9 10 10 11 11 12 12 12 13 12 12 13 12 11 10 10 11 12 12 11 10 11 11 11 10 9 9 9 9 9 9 9 9 8 8 7 7 6 6 6 5 5 5 5 5 5 5 5 5 5 5 6 5 5 5
5 4 4 4 4 5 5 6 6 6 6 6 6 6 6 5 5 5 5 5 4 4 4 4 4 5 5 6 6 7 8 9 10 10 11 12 12 12 12 12 12 12 12 11 11 10 10 9 9 9 10 10 10 10 10 10 10 10 9 9 8 8 8 8 7 7 6 5 5 5 5 5 5 6 6 6 6 6 6 5 5 5 5 5 5
4 4 4 4 5 5 5 5 5 5 5 5 5 5 5 5 5 5 4 4 4 3 4 4 4 4 5 6 6 7 7 8 9 10 11 11 10 10 10 11 11 11 11 11 11 10 10 9 8 8 9 10 10 10 10 10 10 10 9 8 8 8 8 8 7 7 6 5 5 6 6 6 7 7 7 7 7 6 6 5 5 4 5 5 5
4 4 4 5 5 5 4 4 5 4 5 5 5 5 5 4 4 4 3 3 3 3 3 3 3 4 4 5 5 6 6 7 8 9 10 11 10 9 9 9 10 10 10 10 10 9 9 9 8 8 9 9 9 9 10 10 10 9 8 8 8 8 8 8 7 7 6 6 7 7 7 7 7 7 7 7 6 6 6 6 5 5 5 5 4
Height
777 781 783 785 787 789 790 791 793 794 795 797 799 802 804 803 804 806 808 809 810 813 815 816 818 820 821 822 822 824 826 826 827 828 829 829 830 830 830 830 830 830 830 831 831 831 831 831 831 832 833 834 835 835 836 837 837 838 839 839 839 839 840 841 842 842 843 844 846 847 848 849 849 850 851 851 852 852 851 851 851 852 854 854 855
777 780 782 785 786 787 789 790 791 792 794 796 798 801 802 803 805 805 807 809 810 812 814 816 818 819 820 821 822 824 825 826 827 828 829 829 830 831 831 831 831 831 831 831 832 832 831 831 831 832 833 833 835 835 836 836 837 838 839 839 839 839 840 840 841 842 842 843 843 844 846 848 849 850 851 851 851 852 851 851 852 852 853 854 855
777 780 781 783 784 786 788 789 790 791 793 796 797 800 802 803 804 805 806 808 810 812 814 816 817 819 820 821 822 824 825 826 827 828 829 830 830 831 832 832 832 832 832 832 832 832 833 832 832 832 833 834 835 835 836 836 837 838 838 839 839 839 839 840 841 841 841 841 842 843 843 845 848 848 850 852 851 852 852 851 852 852 853 854 854
777 778 779 781 783 784 786 788 789 791 793 795 796 798 800 801 802 803 805 807 810 812 814 816 817 819 820 821 823 824 825 826 827 829 829 830 831 831 832 832 832 833 833 833 833 833 833 833 833 834 834 834 835 835 836 836 837 837 838 838 838 838 839 840 841 841 841 841 841 842 841 844 849 847 847 851 851 851 852 851 852 852 853 854 854
774 776 777 778 781 782 784 786 788 790 792 794 795 796 798 800 801 802 804 807 809 811 813 815 817 818 820 821 823 824 825 826 827 828 829 830 831 831 832 832 833 833 833 834 834 833 834 833 833 834 834 834 835 835 836 836 836 837 837 838 838 838 839 839 840 841 841 841 840 841 841 845 848 846 846 850 851 851 851 852 853 853 853 854 854
769 772 774 776 778 781 783 785 787 789 791 793 794 795 797 799 800 802 804 806 808 811 813 815 816 818 819 821 822 823 825 826 826 827 828 829 830 831 832 832 833 833 834 834 834 834 834 834 834 834 834 834 834 835 835 836 836 837 837 838 838 838 839 839 840 840 841 841 841 842 844 845 845 844 844 848 851 852 852 852 853 854 854 854 855
767 769 771 774 776 779 781 783 786 788 790 792 793 794 796 798 799 801 803 805 807 810 812 814 815 817 819 820 821 822 823 824 826 827 828 829 830 831 832 833 833 834 834 834 834 834 834 834 834 834 834 834 834 834 835 835 836 836 837 837 837 838 838 838 839 840 841 841 842 843 844 844 844 843 842 845 849 851 853 854 855 855 855 855 856
766 768 769 771 774 776 779 782 784 786 789 791 792 792 794 796 798 800 802 804 806 809 811 813 815 817 819 820 821 822 823 825 826 827 829 830 830 832 832 833 834 834 834 835 835 835 835 835 835 835 835 835 834 834 835 835 836 836 837 837 837 837 838 838 838 840 840 841 842 843 843 843 844 843 842 842 845 849 853 855 856 857 857 857 858
763 766 768 769 771 774 777 781 783 785 787 789 790 791 793 795 797 798 800 803 805 808 810 812 814 816 818 820 821 822 824 825 827 828 829 829 830 831 832 833 834 835 835 835 835 835 835 835 835 835 835 835 835 835 835 835 836 836 837 837 838 838 838 838 838 839 839 840 842 843 843 843 843 844 844 843 843 847 851 854 857 859 858 858 859
761 763 766 768 770 772 776 779 781 784 786 788 790 791 793 795 797 798 800 802 805 807 810 811 814 816 818 819 821 823 824 826 827 828 829 829 830 831 832 833 834 835 835 835 836 836 836 836 836 836 836 836 836 836 836 836 836 837 837 837 838 838 838 838 838 839 840 840 841 842 842 842 843 844 844 844 843 845 849 852 855 857 857 859 860
759 761 764 767 769 772 775 778 780 784 786 789 791 793 795 796 798 799 801 803 805 807 809 811 813 816 817 819 821 822 824 826 827 828 829 829 829 830 831 832 833 834 835 835 836 836 836 836 836 836 836 837 837 837 837 837 837 837 837 837 838 839 839 839 839 840 840 841 841 841 842 842 842 843 844 844 844 845 847 850 852 854 856 859 861
758 760 762 766 769 772 776 779 782 786 789 792 794 795 797 799 800 802 802 803 805 807 808 810 813 815 817 819 820 821 823 825 826 828 828 829 829 830 831 832 833 834 835 836 836 836 836 836 837 836 837 837 838 838 838 838 838 838 838 838 839 839 839 840 841 841 842 842 842 842 842 843 843 843 844 845 845 846 848 849 850 852 855 858 861
756 759 762 766 769 772 775 780 783 786 790 794 798 800 801 803 805 807 807 805 805 806 808 811 813 816 817 819 820 821 822 824 825 827 828 829 829 830 830 831 833 834 835 836 836 837 837 837 837 837 837 838 838 839 839 839 839 839 839 839 840 840 840 841 842 842 843 843 844 844 844 844 844 844 845 845 846 847 848 849 849 852 855 857 860
756 759 762 765 767 770 775 780 782 784 786 790 796 800 804 807 811 815 817 815 811 810 811 813 815 816 817 818 820 821 822 824 824 826 827 828 829 830 830 831 832 833 835 836 836 837 837 837 837 838 838 839 839 840 840 841 841 841 841 841 841 842 842 842 843 843 844 844 845 845 845 845 845 846 846 846 847 848 849 849 850 852 855 856 858
757 760 763 766 767 771 777 780 782 784 787 790 794 797 801 805 810 816 820 821 819 815 813 813 813 813 815 817 819 821 822 824 825 826 827 828 829 830 830 831 832 833 835 836 837 837 837 838 838 839 839 840 840 841 841 842 842 842 843 843 843 844 844 844 844 845 845 846 846 846 846 846 847 847 847 847 848 849 849 851 851 853 855 856 856
761 764 767 769 771 775 778 780 782 784 788 792 795 796 798 801 806 811 815 817 819 816 812 810 809 810 812 816 819 821 822 824 825 826 827 827 828 829 830 831 832 833 834 836 837 837 837 838 839 839 840 841 841 842 842 843 843 844 844 844 845 845 845 846 846 846 847 847 847 847 847 848 848 849 849 849 850 850 851 853 853 853 854 855 857
765 767 770 772 774 777 779 781 783 785 788 792 795 795 797 800 804 809 812 813 814 813 810 809 809 810 812 815 818 820 821 823 824 825 826 827 828 829 830 832 833 833 834 835 837 837 838 838 839 840 840 841 842 842 843 843 844 845 845 846 846 847 847 847 847 848 848 848 849 849 849 850 850 851 851 851 852 853 853 854 854 853 852 853 855
767 769 772 774 776 778 780 782 785 787 789 791 794 795 796 799 803 808 813 814 812 811 809 809 809 810 812 814 817 819 821 822 824 825 827 828 828 829 831 832 833 834 834 836 837 837 838 839 840 840 841 842 842 843 844 844 845 846 846 847 847 848 848 848 849 849 850 850 851 851 851 852 852 853 853 853 854 854 854 854 854 854 853 852 852
770 773 776 777 779 781 782 783 784 788 791 791 795 796 794 797 802 807 813 816 813 810 809 809 810 811 812 814 816 818 820 822 823 824 826 827 828 829 831 832 833 834 835 836 837 838 838 839 840 841 842 842 843 844 845 845 846 847 847 848 849 849 850 850 851 851 851 852 852 853 853 854 854 855 855 855 855 855 855 855 855 855 855 855 854
773 774 777 779 781 782 784 785 785 788 792 793 795 795 794 797 802 807 812 814 813 810 808 809 810 811 812 814 816 819 820 821 822 823 825 826 828 829 831 832 833 834 835 836 837 838 838 839 840 842 842 843 844 844 845 846 847 848 848 849 849 850 850 851 852 852 853 853 854 854 855 855 856 856 856 856 856 857 856 856 857 857 857 857 857
776 777 779 781 783 784 786 787 789 791 793 794 795 794 795 799 804 808 811 811 810 809 808 809 810 811 813 814 816 818 819 820 821 823 824 826 828 829 830 831 832 834 834 836 837 838 839 839 840 842 843 843 844 845 846 847 847 848 849 849 850 850 851 851 852 853 853 854 855 855 856 856 856 857 857 857 857 858 858 858 858 858 859 859 859
779 780 781 783 785 787 787 788 791 793 794 794 795 795 798 801 805 808 809 807 807 807 807 808 809 811 812 813 815 817 819 820 821 822 824 826 828 829 830 831 832 833 834 835 836 837 838 839 840 841 842 843 844 845 846 847 848 848 849 849 850 850 851 851 852 853 854 855 855 856 856 857 857 857 857 858 858 858 858 858 859 859 860 860 860
783 782 783 784 785 787 788 790 793 795 794 794 795 797 800 802 804 807 806 805 805 805 806 808 809 811 812 813 815 816 818 820 820 822 823 825 827 828 829 830 832 833 834 835 836 836 838 839 839 841 842 843 844 845 846 846 847 848 849 849 850 851 851 852 852 853 854 855 856 856 857 857 857 858 858 858 858 859 858 859 860 860 860 861 861
786 786 786 787 787 787 788 790 792 793 794 794 796 798 800 803 805 805 805 805 805 805 807 808 809 810 812 813 815 816 817 819 820 821 823 824 826 827 828 829 831 832 833 834 835 836 837 838 838 840 841 842 843 844 845 846 847 848 848 849 850 851 851 852 852 853 854 854 855 856 857 858 858 858 858 858 859 859 859 859 860 861 861 861 862
789 789 789 788 789 790 790 790 791 792 794 795 797 799 802 804 805 805 805 805 805 806 807 807 808 810 811 813 814 815 817 818 819 821 822 823 825 826 827 828 829 831 832 833 834 835 836 837 837 839 840 841 842 843 845 846 847 847 848 849 850 850 851 852 852 853 853 854 855 856 857 857 858 858 859 859 859 859 859 860 860 860 861 862 862
792 791 791 791 791 793 793 795 795 795 796 797 799 801 803 805 805 805 806 806 806 807 807 808 809 809 811 812 813 815 816 817 818 820 821 823 824 825 826 827 828 829 831 832 833 834 835 836 837 837 839 840 841 842 843 845 846 847 848 848 849 850 851 851 852 853 853 854 854 855 856 857 857 858 859 859 859 859 860 860 860 860 861 862 862
795 795 795 795 796 796 797 798 798 799 800 800 802 803 804 805 805 805 806 806 807 807 808 809 809 809 810 811 812 814 815 816 817 818 820 821 822 824 825 826 827 828 829 830 832 833 834 835 835 836 837 838 839 841 842 843 845 846 847 848 848 849 850 851 851 852 852 853 853 854 855 855 856 857 858 859 859 860 860 860 860 861 861 861 862
798 799 799 799 800 800 800 801 801 802 803 803 804 804 805 805 805 805 806 806 807 807 808 809 809 810 811 811 812 813 814 816 817 818 819 820 821 823 824 825 826 827 828 829 830 831 832 833 834 835 836 837 838 839 840 842 843 844 846 846 847 848 849 850 850 850 851 851 852 853 853 854 855 855 856 857 859 860 860 860 860 861 861 861 861
802 802 803 803 804 803 803 804 804 804 804 805 805 805 805 806 806 806 807 807 808 808 808 809 809 810 811 812 813 814 814 816 816 817 819 819 821 822 823 824 825 825 827 827 828 829 830 831 832 833 834 835 837 838 838 839 841 842 844 845 846 847 847 848 848 849 849 849 850 851 852 852 853 853 854 856 857 858 859 859 860 860 861 861 861
805 806 806 806 806 806 807 807 807 807 807 807 806 806 806 806 807 807 808 808 809 809 809 810 810 811 812 813 813 814 815 815 816 817 818 818 819 820 821 822 823 824 825 826 827 828 828 829 830 831 832 833 834 835 836 836 838 839 841 842 844 845 846 846 847 847 847 847 848 849 849 850 851 851 852 853 855 856 857 858 859 859 860 861 860
810 810 809 809 809 810 810 810 810 810 809 808 808 807 808 808 808 809 809 809 810 810 811 811 811 812 813 813 814 814 815 815 816 817 817 818 819 819 820 821 821 822 823 824 825 826 827 828 829 829 830 830 832 833 834 835 835 836 838 840 841 843 843 844 845 845 845 845 845 846 847 848 848 849 850 851 852 853 855 856 857 858 859 859 860
815 815 814 813 813 813 813 813 812 812 811 810 809 809 810 810 810 810 810 811 811 811 812 812 813 813 813 814 814 814 815 815 816 816 817 817 818 818 819 820 820 821 822 823 823 824 825 827 827 828 828 828 829 831 832 834 834 834 835 837 838 840 841 842 843 843 843 843 844 844 844 846 846 847 848 849 850 851 852 854 855 856 857 858 859
819 820 819 818 817 816 816 815 814 814 813 812 811 811 812 812 812 812 812 812 812 812 813 813 813 813 814 814 814 814 814 815 815 815 815 816 816 817 817 818 819 820 820 821 821 822 823 824 825 826 826 827 827 828 830 832 832 832 833 834 836 837 838 839 840 841 841 842 842 842 842 844 845 845 846 848 848 849 850 852 853 855 856 857 857
823 823 823 822 821 820 819 818 817 817 816 815 814 813 813 813 813 813 813 813 813 813 813 813 813 813 813 814 814 813 814 814 814 814 815 815 815 815 816 816 817 818 818 819 819 820 820 821 822 823 824 825 825 826 828 830 830 830 830 832 834 834 835 837 839 840 840 840 840 840 841 842 843 844 845 846 847 847 848 850 852 854 855 856 857
827 827 826 825 824 823 821 821 821 820 819 818 817 816 815 814 814 814 814 814 814 814 814 814 814 814 814 814 813 813 813 813 813 814 814 814 814 814 814 815 815 816 816 817 817 817 818 819 820 821 821 822 823 823 825 827 828 829 829 830 831 831 834 837 839 838 838 838 838 839 839 841 842 843 844 844 845 846 847 850 852 853 855 856 856
830 830 828 826 825 824 823 823 823 822 821 820 819 818 817 816 816 815 815 815 814 814 815 815 814 814 814 814 814 813 813 813 813 813 813 813 813 812 813 813 813 814 814 814 815 815 816 816 817 818 819 820 821 821 822 824 825 826 827 828 829 830 832 837 838 837 837 837 837 838 839 840 841 841 842 843 844 845 847 849 851 853 854 854 855
831 830 828 826 824 823 823 823 822 821 820 819 819 819 818 818 818 817 816 816 815 815 815 815 815 814 814 814 814 813 813 813 813 812 812 812 811 811 811 811 811 811 811 812 813 813 814 814 815 816 817 818 819 819 820 821 823 824 825 826 828 829 832 835 836 836 836 836 836 837 838 839 839 840 841 842 843 845 847 849 850 852 853 853 854
828 827 825 824 823 822 821 821 821 820 820 820 820 820 819 819 819 818 818 817 816 816 816 816 816 815 815 814 814 813 813 812 812 812 811 811 811 810 810 810 810 809 810 810 811 811 812 813 813 814 815 816 817 817 818 820 822 823 825 825 827 829 831 833 834 834 835 835 835 836 837 838 839 839 840 842 843 845 847 848 850 851 852 853 853
826 826 824 823 823 822 822 822 822 821 821 821 821 820 820 819 819 819 819 818 817 818 817 817 817 816 815 815 814 813 813 812 812 811 811 810 810 809 809 809 809 808 808 809 809 810 811 811 811 812 813 814 814 815 817 819 821 822 824 824 826 827 829 831 832 833 835 835 835 836 837 838 839 840 841 842 843 845 847 848 849 850 851 852 853
826 826 826 825 824 824 823 823 823 822 822 821 821 821 820 820 820 819 819 818 818 818 818 817 817 816 815 815 814 813 813 812 811 811 810 809 809 808 808 808 808 807 806 807 808 809 809 810 811 811 812 813 813 814 815 818 820 821 823 824 825 826 828 829 831 833 834 835 836 837 838 839 839 840 841 843 844 845 847 848 849 849 850 851 852
827 827 826 825 825 824 824 824 823 823 822 822 821 821 821 820 820 819 818 818 818 817 817 816 816 815 814 814 813 813 812 811 810 810 809 808 808 807 807 807 807 806 805 805 806 807 809 809 810 811 812 812 813 814 815 817 819 820 822 823 824 826 827 829 830 832 833 835 836 837 838 838 840 841 842 843 845 845 846 847 848 848 849 850 851
827 827 827 826 825 825 824 824 824 823 823 822 821 821 821 820 819 819 818 818 817 817 816 815 815 814 813 812 812 812 811 810 809 809 808 807 806 806 806 806 805 805 804 804 804 806 808 808 809 810 810 811 812 814 815 816 818 819 821 822 824 825 826 828 829 831 832 834 835 836 837 838 840 841 843 844 845 845 846 846 847 848 848 849 850
827 827 827 826 826 825 824 824 823 823 822 822 821 821 820 819 819 818 818 817 816 816 815 814 813 813 812 811 810 810 809 809 808 807 806 805 805 804 804 804 804 804 804 803 803 804 806 807 808 809 810 810 812 813 814 816 817 818 820 821 823 824 826 828 829 830 831 833 834 835 837 838 840 841 842 843 844 845 845 846 846 847 848 848 849
827 827 826 826 825 824 823 823 823 822 822 821 820 820 819 819 818 817 817 816 815 814 813 812 811 810 810 809 808 807 807 806 805 805 804 803 803 802 802 802 803 802 802 802 802 803 803 805 806 808 809 810 811 812 814 815 816 818 819 821 822 824 826 827 828 829 831 832 833 834 836 838 840 841 842 843 843 844 845 845 846 846 846 847 848
827 826 826 826 824 823 823 822 821 821 821 820 820 819 818 817 817 816 815 814 813 812 811 810 809 808 807 806 805 804 804 804 803 803 802 801 800 800 800 800 800 800 800 800 801 801 802 803 804 806 807 808 810 811 812 814 816 817 818 820 822 823 825 827 828 829 830 831 832 834 836 838 839 840 841 842 843 844 844 845 845 845 846 847 848
827 826 825 825 823 823 822 821 821 821 820 819 819 818 817 816 816 815 814 812 811 810 809 808 806 805 804 803 802 801 800 800 800 799 799 798 797 797 796 797 797 798 798 798 799 800 800 802 803 804 806 807 809 810 811 812 814 816 817 819 821 822 824 825 827 828 830 831 832 834 836 837 838 840 841 842 843 844 844 844 845 845 846 847 847
826 826 825 824 823 822 822 821 821 820 818 818 817 816 815 815 814 813 812 811 810 808 807 806 804 803 801 800 798 797 797 796 796 795 795 794 794 793 793 793 794 795 796 797 798 798 799 800 801 803 804 806 808 809 810 811 813 814 816 817 819 821 823 824 826 828 830 831 833 834 835 837 838 839 841 842 843 843 844 844 844 845 846 846 846
826 825 825 824 823 822 822 822 820 818 817 816 816 815 814 813 812 811 810 809 807 806 805 804 803 801 800 798 796 795 794 793 792 792 791 790 790 790 790 790 790 791 792 793 795 798 799 800 801 802 802 804 806 807 808 810 811 812 814 816 817 819 822 824 826 828 829 831 832 834 835 837 838 840 841 842 843 844 844 844 844 844 845 845 845
826 825 825 824 824 823 822 821 819 818 817 816 815 814 812 811 810 809 808 807 806 805 803 802 801 799 797 796 794 793 791 790 789 788 787 786 786 786 787 787 788 788 789 790 792 795 797 799 801 803 802 802 804 805 806 808 809 810 812 814 816 818 821 823 825 826 828 831 832 834 836 837 838 839 840 841 842 843 843 844 843 843 844 844 844
826 825 824 824 823 822 821 820 819 818 816 815 814 812 811 810 809 807 806 805 804 802 801 800 799 797 795 794 792 790 789 788 786 785 784 783 783 784 785 785 786 786 786 787 789 792 795 797 801 804 804 804 804 805 805 806 808 811 813 814 816 818 820 822 824 826 828 830 832 833 835 836 837 838 839 840 841 842 842 842 842 843 843 843 843
825 824 824 823 822 821 820 819 818 817 816 814 813 811 809 808 806 805 804 803 801 800 798 797 796 795 794 792 791 789 788 786 783 782 781 780 780 781 782 783 783 784 785 786 788 790 792 795 799 803 804 804 804 805 805 805 807 811 813 814 816 818 820 821 823 826 828 830 831 832 834 835 836 837 838 839 840 840 841 841 841 842 842 842 843
Wind_Speed
10 12 12 13 13 12 12 12 12 13 14 14 14 14 13 12 13 13 12 12 11 11 10 8 8 8 7 7 6 6 5 5 5 4 4 4 4 3 3 3 2 1 1 2 3 3 3 2 2 3 3 3 3 4 3 3 4 4 4 5 6 6 6 6 7 8 8 7 6 6 4 3 2 2 2 2 2 2 1 1 1 2 2 1 1
10 11 11 13 13 13 13 12 13 14 13 12 13 14 14 13 13 14 13 12 12 11 11 10 9 8 7 7 7 7 6 6 6 6 6 5 5 4 3 4 3 3 3 3 4 3 2 2 2 2 2 3 3 3 4 4 4 5 5 6 7 7 6 6 8 8 8 8 7 7 6 5 4 4 3 3 3 3 2 2 2 2 3 2 2
9 10 11 13 13 14 13 13 14 15 14 13 13 15 15 14 15 14 12 13 12 12 12 11 9 8 7 8 8 7 7 6 7 7 6 6 6 4 4 4 4 4 4 4 4 3 2 2 2 2 2 3 3 4 4 4 5 6 6 6 7 7 6 6 9 9 7 7 7 5 5 5 5 5 5 4 3 4 3 3 3 3 3 3 3
10 10 11 12 14 15 14 14 14 14 15 15 15 17 17 16 17 15 13 14 13 13 12 11 10 9 8 10 9 8 8 8 8 8 7 6 6 4 3 4 4 4 4 4 3 3 2 2 2 2 3 4 4 4 5 5 5 6 6 7 7 7 6 7 8 7 5 5 5 3 4 4 3 5 7 5 4 5 5 4 4 4 4 4 4
11 11 11 12 14 15 16 15 15 15 15 16 17 17 16 16 17 15 15 15 14 14 13 12 12 11 10 11 10 9 9 8 8 7 7 6 5 4 3 3 3 3 3 3 3 3 2 1 1 1 2 3 3 4 4 5 5 6 6 7 8 7 6 7 8 7 6 6 4 2 3 3 2 7 8 5 5 5 5 5 5 4 4 4 5
11 11 11 12 13 15 16 16 16 16 15 16 17 17 16 16 17 17 16 16 15 16 15 14 14 13 13 12 11 10 9 7 7 7 7 6 5 5 4 3 3 3 3 3 3 3 3 2 1 1 1 2 3 3 4 5 6 6 7 7 8 8 7 7 7 7 6 7 6 3 2 2 2 8 7 4 6 7 6 6 6 6 6 6 7
10 11 12 12 14 15 15 16 16 16 16 16 17 18 17 16 17 18 17 16 15 16 16 14 13 13 13 11 10 9 9 8 7 7 7 6 6 5 5 4 3 4 3 3 3 4 4 4 3 2 1 1 2 3 4 5 6 6 6 7 7 7 8 8 7 6 6 7 7 5 3 3 3 6 5 4 6 6 6 7 7 8 9 9 9
10 11 12 12 14 15 15 15 16 16 16 16 16 17 17 16 17 18 17 16 16 16 16 14 13 13 12 10 9 9 9 9 8 8 7 7 7 7 6 5 4 4 3 3 3 4 4 3 3 3 2 2 2 2 3 3 4 5 6 6 6 7 9 9 8 7 6 6 6 6 5 4 5 6 5 5 6 5 6 7 8 10 10 11 10
10 10 11 12 15 16 16 15 16 15 14 15 15 14 15 15 15 15 15 15 16 16 16 14 12 13 11 10 10 9 9 9 9 8 8 8 8 7 6 6 4 3 3 3 3 3 3 3 2 3 3 2 3 2 3 3 4 4 5 6 6 6 7 8 8 8 6 6 7 7 6 6 6 5 5 5 6 6 6 7 8 8 9 10 10
10 10 10 12 14 15 15 15 15 13 11 11 11 11 13 14 14 14 14 14 15 15 14 14 13 12 10 10 11 11 11 10 9 9 8 9 9 8 7 6 5 3 3 3 3 3 3 3 2 3 4 4 4 4 4 4 3 4 4 5 6 7 6 6 7 7 6 7 7 7 7 7 7 7 7 7 7 7 6 8 9 8 8 9 8
9 9 10 12 13 14 14 14 13 11 9 9 8 10 11 12 13 13 13 13 15 15 14 14 14 11 10 10 11 12 12 11 10 9 9 9 10 9 7 5 5 4 3 4 4 3 4 3 3 4 5 5 4 4 4 3 3 3 4 5 5 6 6 6 7 7 6 7 6 6 6 6 6 7 8 8 7 6 6 7 9 9 9 9 8
9 9 10 11 12 13 12 11 10 7 6 4 2 4 6 8 11 13 13 15 16 16 16 16 14 11 10 11 11 12 12 11 11 10 10 10 10 9 7 6 5 4 4 5 4 4 4 3 3 5 6 5 4 4 4 4 3 3 3 4 4 5 6 6 7 8 7 7 6 5 5 5 5 5 7 7 6 6 7 6 8 9 8 9 10
8 8 8 9 9 11 11 10 11 12 13 12 13 13 11 7 6 8 9 13 16 17 15 14 12 10 10 10 10 11 11 10 11 11 10 10 9 9 8 7 5 5 5 5 5 4 4 4 4 5 6 5 5 5 5 5 4 4 4 5 5 5 5 6 7 8 7 7 7 6 5 5 4 4 5 5 5 7 7 6 7 8 7 8 9
7 7 7 8 8 10 11 12 13 15 17 15 14 17 19 18 17 15 9 2 6 11 11 11 10 9 9 9 9 9 9 10 10 10 10 10 9 9 8 7 6 6 6 6 5 4 5 6 5 6 6 6 6 6 6 5 4 5 5 6 6 6 6 7 8 8 7 6 6 5 6 5 5 5 5 5 6 6 7 6 6 7 6 7 8
6 6 6 7 9 11 12 12 12 13 15 16 20 22 20 15 10 7 4 6 3 7 12 12 11 11 11 11 10 9 9 9 9 10 10 9 9 8 8 8 7 7 7 6 5 6 7 8 7 7 7 6 6 6 6 6 5 5 6 6 7 7 7 8 8 8 7 6 5 5 6 6 6 5 5 5 5 5 6 6 6 6 5 5 6
6 6 6 7 10 11 10 10 11 12 11 15 23 24 20 15 8 5 10 10 7 9 13 14 15 15 14 13 11 9 9 9 9 10 10 9 9 8 8 8 8 9 8 7 6 7 8 9 8 8 7 7 7 6 6 6 5 6 6 6 6 6 6 6 6 7 6 6 6 6 7 7 7 6 5 5 4 4 6 6 6 6 5 4 5
6 6 7 8 10 10 9 9 10 10 11 16 21 21 18 15 11 7 12 16 18 19 18 17 16 14 15 15 13 12 11 11 10 10 10 10 9 8 9 9 9 10 9 8 8 8 9 9 9 9 8 8 7 6 6 6 5 6 6 6 6 5 6 6 5 6 6 7 7 7 8 8 8 7 7 7 6 5 6 6 5 5 4 4 4
8 8 8 9 9 10 11 12 11 9 9 14 16 17 17 15 10 4 13 21 22 20 17 16 15 15 16 16 15 14 12 11 11 12 11 10 10 9 9 9 9 10 10 9 9 9 10 9 9 9 9 10 9 8 7 6 6 6 7 6 6 5 6 6 6 7 7 7 8 8 8 8 8 8 8 7 7 7 6 5 4 3 2 2 3
9 9 8 8 9 9 9 11 13 10 7 10 12 14 16 14 8 5 13 25 26 19 17 16 14 15 17 17 17 15 12 11 11 12 11 11 10 11 10 10 10 11 11 10 9 9 10 9 9 9 10 10 10 9 8 7 7 8 8 7 7 7 7 7 7 7 7 7 8 8 8 8 7 7 7 7 7 7 7 6 6 5 5 4 3
7 7 7 8 9 10 9 9 12 10 7 8 9 11 13 13 10 11 17 23 22 16 15 14 13 13 13 16 17 14 12 11 11 11 11 11 10 11 12 11 11 11 11 11 10 10 10 10 10 9 10 10 10 9 9 8 8 8 8 9 8 8 9 9 8 8 7 8 8 8 8 7 7 7 7 6 6 6 6 7 7 7 7 5 3
7 7 8 9 10 11 11 10 11 11 10 10 10 12 12 12 12 13 16 16 13 11 11 11 10 10 11 14 15 13 12 11 10 10 10 11 11 12 12 11 10 11 11 11 11 10 10 10 10 10 9 9 9 9 9 8 8 8 8 9 9 9 9 9 9 8 8 7 7 7 7 6 6 6 6 6 6 6 6 6 6 6 6 5 4
8 9 9 10 11 12 12 11 11 11 12 12 13 14 12 11 11 11 11 9 8 8 8 8 7 8 9 11 12 12 10 9 10 10 10 11 12 12 13 11 10 10 11 11 11 11 11 10 10 10 10 9 9 9 8 8 8 8 7 7 7 7 7 7 7 7 7 6 6 6 6 6 5 5 5 5 6 5 5 5 5 5 5 5 4
9 10 10 10 11 12 12 12 12 11 12 13 13 13 13 10 9 8 7 6 5 5 5 5 5 5 6 9 10 9 9 9 9 9 9 11 12 13 13 12 10 9 10 10 11 12 12 11 11 10 10 10 9 9 9 8 8 8 7 6 6 5 6 6 6 6 6 5 5 4 5 4 4 5 4 4 5 4 3 5 5 5 5 5 4
10 9 10 11 12 11 11 11 11 11 12 12 12 12 11 9 7 6 5 5 4 5 4 4 4 4 5 7 8 7 7 8 8 8 8 10 12 12 12 12 11 10 10 10 11 12 12 12 12 11 11 10 10 9 9 8 8 8 7 7 6 5 5 5 4 5 5 5 4 4 4 3 3 4 4 4 4 3 3 4 5 5 5 5 4
10 10 10 11 12 12 11 11 11 11 11 11 11 11 9 7 5 6 6 5 5 4 4 4 5 5 5 6 6 6 6 7 8 8 9 10 11 12 12 12 12 12 11 11 11 11 12 12 12 12 12 11 10 10 9 9 8 7 7 7 6 6 5 5 4 4 4 4 4 4 4 4 3 3 3 3 3 3 3 4 4 4 4 4 3
10 11 11 11 12 13 13 12 11 11 11 11 11 10 8 8 7 7 6 6 6 5 4 4 4 4 4 5 6 6 6 7 8 9 10 10 11 11 11 11 11 12 12 12 11 11 11 12 12 12 12 12 11 11 10 9 9 8 7 7 7 6 6 6 5 5 5 5 5 4 4 5 5 4 3 3 3 3 3 3 3 3 3 4 3
10 11 11 12 12 13 14 14 12 12 11 10 10 10 9 9 9 8 8 8 7 6 5 4 3 2 3 4 5 6 7 7 9 10 10 10 10 11 11 11 11 12 13 13 12 12 12 12 13 13 13 13 12 11 11 10 9 9 8 7 6 6 6 6 6 6 6 7 7 7 7 7 7 6 6 5 4 4 4 4 4 3 3 3 3
12 12 12 13 12 12 14 15 13 13 12 11 10 10 10 10 10 9 9 8 8 7 6 5 3 1 1 2 3 3 5 6 8 9 10 10 10 11 11 12 12 12 12 13 13 14 13 13 13 13 13 13 12 12 11 11 9 8 7 6 6 6 6 6 6 7 7 8 9 9 10 10 10 10 10 9 7 6 6 6 5 5 4 4 3
13 13 13 13 12 12 14 14 13 13 12 12 11 10 10 10 10 9 9 9 8 7 6 5 3 2 1 1 0 1 3 5 6 8 10 11 11 11 12 13 13 13 13 13 14 15 15 15 15 14 14 13 12 12 12 13 11 9 7 6 5 5 6 6 7 7 8 9 9 9 11 12 12 12 12 11 10 10 9 7 6 5 4 4 4
13 13 13 12 12 13 14 14 14 14 13 12 12 12 12 12 11 10 9 9 7 7 6 5 4 3 3 2 1 1 3 4 5 7 8 9 10 11 12 13 14 13 13 12 13 15 16 16 16 16 16 14 14 14 15 15 15 12 8 5 5 5 6 7 7 8 8 8 9 9 10 12 13 13 13 12 12 13 13 10 7 7 7 6 5
12 12 13 13 13 14 15 15 14 14 13 13 13 13 13 13 12 11 10 9 8 7 6 5 4 3 3 2 1 1 2 4 5 6 7 7 8 9 11 12 12 12 12 12 13 14 15 15 15 16 17 17 15 15 16 17 16 13 9 6 4 5 5 6 7 8 8 9 9 9 9 10 11 12 13 13 13 15 16 16 13 11 10 9 7
12 12 12 13 13 14 14 15 14 14 14 14 13 13 13 12 12 11 10 9 8 8 6 5 4 3 3 2 2 2 2 3 4 5 7 7 8 9 9 11 11 12 12 12 13 15 15 15 15 15 17 18 19 18 17 17 17 15 11 8 6 7 7 8 9 9 9 10 10 9 7 6 7 9 10 10 12 15 17 18 18 15 13 13 11
12 12 12 12 13 14 15 15 15 15 15 14 13 13 12 11 10 10 9 8 8 8 7 6 5 5 4 3 1 2 2 3 4 5 6 7 8 9 9 10 11 12 13 14 15 16 16 17 17 17 17 18 21 21 20 19 18 17 14 12 10 10 9 9 10 10 10 10 10 7 6 5 6 8 7 7 10 14 17 19 18 16 15 14 12
11 11 11 11 12 14 14 15 15 15 14 14 14 12 11 10 9 9 8 7 7 7 7 7 6 6 5 4 2 2 2 3 4 5 6 7 8 8 8 9 10 11 13 14 16 17 18 18 18 18 18 18 20 22 23 21 19 18 16 13 10 8 6 7 9 9 8 9 7 5 5 5 5 6 6 8 10 13 16 18 15 13 12 11 8
9 9 9 11 12 13 14 14 14 14 14 14 14 13 11 10 9 9 8 7 6 6 6 6 6 6 6 5 4 3 3 3 3 5 6 8 9 9 9 9 9 10 11 12 14 15 15 16 16 16 16 17 20 23 25 23 21 20 17 13 9 7 6 8 10 9 7 7 6 5 5 5 5 6 8 10 10 11 13 14 12 10 9 8 8
7 7 9 11 11 12 12 11 11 12 13 13 13 13 12 10 10 9 8 7 6 5 5 5 5 6 6 6 5 5 5 4 4 5 6 7 9 10 11 10 10 11 11 11 12 12 13 13 13 14 14 14 16 20 23 22 20 19 17 13 11 11 10 9 8 7 5 5 5 5 5 6 7 7 9 11 10 11 13 13 12 11 9 9 9
7 7 9 11 11 11 11 10 11 13 14 14 14 14 12 11 10 10 9 8 6 6 6 6 5 6 6 6 6 6 5 6 6 6 6 6 7 8 9 9 9 10 11 12 13 13 12 12 11 12 13 12 13 17 20 19 19 19 17 14 13 13 12 10 8 6 5 6 7 7 6 6 7 8 9 11 13 14 13 12 12 10 8 7 7
9 10 11 12 12 13 12 12 13 14 14 14 14 14 12 11 11 11 11 9 8 8 8 8 8 8 7 7 7 7 6 6 7 7 8 8 8 8 8 8 8 8 9 10 12 12 11 11 11 12 13 12 13 17 19 18 19 20 17 13 13 13 12 10 9 8 7 8 10 10 9 8 9 11 12 14 15 13 10 10 10 9 7 6 5
11 12 13 13 13 12 12 13 13 13 13 13 13 13 12 11 11 11 11 10 9 9 10 10 10 9 9 9 8 8 8 8 8 8 8 9 10 9 8 8 9 8 8 8 9 10 10 10 10 12 14 13 13 17 19 19 20 20 16 12 10 11 12 11 11 10 9 9 10 10 10 9 10 12 13 14 14 11 7 8 8 7 6 6 5
11 12 12 12 11 11 12 12 12 12 13 13 12 12 11 11 10 11 11 10 9 10 11 12 11 11 10 10 9 9 9 9 9 8 8 9 10 10 10 10 10 9 8 9 9 8 9 9 10 12 13 13 14 19 21 20 19 18 15 11 10 11 11 11 11 11 11 11 11 10 10 10 10 12 13 13 13 11 7 6 5 5 5 5 4
10 10 10 11 11 10 11 11 11 11 12 12 12 11 11 11 11 11 11 11 11 11 12 13 13 12 12 11 11 10 10 10 11 10 9 9 10 11 11 11 11 10 9 10 10 10 10 10 11 12 13 13 16 20 21 20 19 18 16 13 10 10 11 12 12 12 11 11 11 11 12 11 10 11 12 11 11 11 9 6 4 4 5 5 3
9 9 9 10 10 9 9 10 10 10 11 11 10 11 12 11 11 12 12 12 12 12 13 13 13 14 14 13 13 12 11 11 11 11 10 10 10 10 11 11 12 11 10 12 13 12 12 12 13 12 13 15 19 20 20 20 20 18 17 15 11 11 13 12 12 12 12 11 11 12 13 13 11 10 11 10 9 9 8 5 4 3 4 3 2
9 9 9 10 10 9 9 10 10 10 10 9 10 11 11 11 12 13 13 13 13 13 14 14 14 14 15 15 15 14 13 12 11 11 12 11 10 10 11 12 13 13 12 14 15 15 14 14 13 12 13 16 19 20 20 21 19 18 18 17 14 14 14 12 11 12 12 12 12 13 14 13 12 11 10 9 8 7 5 3 2 2 2 2 1
9 9 9 10 10 10 10 10 10 10 10 10 10 11 11 12 13 13 14 14 14 14 15 15 15 15 16 16 16 16 15 14 13 12 12 13 11 10 11 13 14 15 15 15 15 16 17 16 15 13 12 14 15 17 19 20 18 18 19 18 16 15 15 12 9 11 12 13 14 15 16 14 13 11 10 8 6 4 3 2 1 1 2 3 1
9 9 10 10 11 11 11 11 11 11 11 11 10 11 13 14 14 14 14 15 15 15 15 16 16 17 17 17 17 17 17 16 15 14 13 14 13 12 12 14 15 16 16 16 16 17 17 16 15 15 14 14 14 16 19 20 19 19 19 19 17 16 16 14 11 12 13 14 14 15 15 14 12 9 7 5 4 3 2 1 2 3 3 2 1
10 10 11 11 11 11 11 11 12 12 11 11 11 11 13 14 14 14 15 15 16 16 16 17 17 17 18 18 19 19 18 18 18 16 15 15 15 14 14 14 15 15 13 13 14 17 18 17 16 15 15 14 14 16 19 21 20 20 20 19 18 18 18 16 14 13 14 14 14 15 14 13 11 9 7 6 4 3 2 2 3 4 3 1 2
10 11 11 11 11 11 11 12 12 12 12 12 13 13 14 15 16 16 17 17 17 17 17 17 17 17 18 19 20 20 19 19 18 18 17 16 16 16 15 15 16 16 14 11 9 10 12 16 17 16 16 15 14 15 18 20 21 21 21 21 20 20 19 16 15 15 15 15 16 15 14 12 11 10 8 6 4 2 2 2 2 2 2 1 0
11 11 11 11 11 11 12 12 13 13 14 14 15 15 16 17 17 17 18 18 19 19 19 19 19 19 18 19 19 20 20 19 19 19 20 19 17 18 18 17 17 18 17 16 15 13 11 10 11 14 16 17 14 14 18 21 22 24 23 23 23 22 18 16 17 18 18 18 18 15 13 11 10 9 8 6 4 4 3 2 2 2 2 1 1
11 11 10 11 11 11 12 12 12 13 14 14 15 16 17 17 18 18 18 19 19 20 21 21 21 20 19 19 19 19 20 20 20 21 21 21 19 18 17 16 17 18 19 20 22 23 20 14 8 7 12 15 14 15 20 23 23 25 25 24 24 22 18 17 20 22 21 19 17 14 12 11 10 8 7 6 5 4 4 3 2 2 1 1 1
12 11 10 10 10 11 12 13 13 13 14 15 16 17 18 19 19 19 19 20 20 21 21 21 20 20 20 19 19 19 19 19 20 21 21 21 19 19 19 17 14 15 19 22 24 26 27 23 17 13 13 13 12 15 19 21 22 24 25 23 22 22 20 20 22 22 20 17 15 13 11 10 9 8 7 6 5 4 4 4 3 2 1 1 2
11 11 10 10 11 12 13 13 14 14 15 16 18 19 20 21 21 20 20 20 20 21 21 21 20 20 20 19 20 20 19 18 19 20 21 21 19 18 20 20 18 16 17 20 22 25 27 27 26 24 19 14 13 14 14 17 22 26 25 23 24 24 22 22 23 21 17 14 12 11 10 9 8 7 6 5 4 4 3 3 2 2 1 1 2
Wind_Direction
171 177 181 183 185 183 185 187 187 192 193 191 188 186 187 185 177 173 174 168 164 166 165 163 162 162 164 160 148 141 140 134 127 117 107 95 88 94 108 120 121 110 127 140 134 143 168 201 201 193 205 192 199 217 209 205 189 184 193 197 207 203 186 178 174 171 164 158 158 159 164 164 136 124 118 111 121 135 161 175 164 156 149 139 81
164 171 177 184 185 180 185 189 190 190 188 187 186 182 181 183 181 174 172 173 170 168 168 167 166 166 163 155 145 139 138 133 126 118 110 104 97 93 102 113 112 106 108 124 126 124 147 182 205 192 189 178 179 194 190 184 183 182 185 194 209 211 200 187 181 187 186 175 168 162 162 159 140 129 115 100 113 116 120 129 128 134 124 106 89
165 173 177 183 184 183 186 190 195 192 183 184 187 186 184 183 182 178 172 173 172 171 171 167 164 162 153 147 144 139 131 120 116 115 111 106 102 100 104 108 113 114 111 114 120 124 145 165 180 180 168 167 176 184 181 180 182 181 184 195 206 206 204 197 193 203 207 182 172 181 178 161 155 155 132 106 115 116 118 126 122 121 112 103 95
178 181 180 181 184 187 190 192 196 191 183 187 191 189 187 184 182 177 172 172 170 169 168 163 158 153 146 142 137 134 130 123 119 115 112 108 105 105 106 113 117 114 114 114 113 116 130 151 161 171 172 172 183 185 178 179 182 181 183 193 204 201 196 201 201 209 221 199 190 209 185 159 172 169 138 114 119 118 112 112 105 103 101 97 93
184 183 183 181 185 190 193 193 194 191 187 190 192 191 188 185 183 178 174 172 167 167 167 162 159 154 147 144 138 135 134 133 131 124 123 121 114 113 116 125 122 111 109 106 102 99 99 119 138 160 175 175 178 176 170 171 174 180 186 193 207 209 199 201 202 205 224 228 238 257 183 180 182 157 141 117 112 108 102 105 98 88 87 83 78
189 187 187 185 187 190 195 196 192 192 193 193 192 192 190 186 186 182 177 174 169 168 169 166 163 159 154 152 151 148 144 142 141 136 136 131 122 121 124 130 125 115 105 90 93 102 106 113 116 166 196 182 182 180 167 167 172 177 188 198 204 202 198 198 194 197 215 228 241 260 252 258 186 159 158 130 114 103 92 96 95 87 82 78 73
190 191 190 189 190 190 194 197 195 194 194 193 194 194 190 187 188 186 179 175 172 169 171 171 166 164 161 158 153 150 146 142 141 139 135 130 126 127 128 132 132 123 112 91 92 99 100 108 120 130 151 172 193 197 181 180 179 172 181 198 197 191 193 195 187 186 196 212 228 238 252 264 195 175 178 151 137 120 101 95 89 85 81 77 75
188 191 192 191 194 193 193 196 199 198 191 189 192 193 190 188 188 185 179 176 173 171 173 172 167 167 166 157 148 147 146 143 143 139 132 128 126 126 127 130 135 128 118 108 101 96 89 97 118 120 120 140 157 175 173 166 161 154 165 183 187 191 199 198 190 190 194 194 204 216 228 222 194 194 198 169 152 137 127 109 90 86 83 80 78
188 188 188 190 194 195 194 197 199 195 188 186 187 186 186 187 184 178 172 171 172 171 172 170 166 168 167 158 149 141 139 142 142 139 134 130 129 128 127 127 131 126 117 117 107 94 90 93 119 126 117 123 120 118 116 108 118 137 157 171 175 189 205 202 192 192 195 186 185 193 198 191 180 184 198 183 157 146 142 121 109 103 92 84 81
187 185 185 188 190 192 192 193 191 184 179 177 175 179 182 182 177 169 163 160 165 169 168 166 165 168 167 159 148 137 137 143 142 143 143 137 134 133 133 132 132 130 122 121 112 98 91 84 110 126 115 113 107 100 100 99 112 134 150 165 168 174 187 194 188 186 188 186 186 188 182 175 170 170 184 188 169 152 139 134 139 135 109 93 88
184 181 177 180 184 186 185 183 179 169 161 162 169 180 182 179 171 161 151 149 156 165 167 164 163 166 164 157 150 142 143 147 146 150 151 143 141 138 137 135 129 131 131 126 115 98 88 75 96 120 114 106 98 87 85 86 101 129 141 153 162 166 171 178 177 174 180 182 184 187 179 176 177 176 181 186 181 160 144 146 147 136 120 110 104
183 178 171 172 174 177 178 174 160 132 109 106 137 178 184 186 173 153 141 143 153 165 169 165 161 161 158 157 155 148 147 151 152 155 154 148 145 140 137 136 130 132 136 129 117 97 92 88 99 119 115 102 88 78 74 72 76 100 124 134 145 152 155 163 165 167 172 174 180 188 184 181 183 181 180 183 182 163 154 154 144 135 126 120 119
179 174 166 161 162 173 174 154 125 101 86 59 32 29 36 44 89 105 123 146 156 163 162 154 152 151 151 155 157 153 151 153 152 152 154 150 147 143 139 138 137 138 136 128 118 102 97 101 105 113 109 95 83 77 80 78 76 91 103 110 115 120 131 141 151 158 162 164 168 168 161 156 144 139 152 158 155 152 155 158 147 139 133 131 135
174 166 158 159 162 164 155 139 128 123 119 103 71 60 62 60 54 45 31 30 137 139 131 125 131 142 155 163 165 160 155 157 155 154 156 149 145 145 139 137 141 139 133 122 113 104 101 103 101 96 92 87 84 86 93 88 86 101 97 93 97 96 103 115 125 132 135 138 140 133 126 120 107 105 115 128 141 153 160 161 148 138 140 146 148
152 145 144 151 147 139 136 139 139 138 134 122 109 102 103 102 78 43 333 309 356 116 128 136 150 164 175 177 171 164 159 160 157 152 151 147 142 142 135 136 141 138 132 120 109 107 106 106 102 96 91 90 90 94 100 95 94 104 95 87 92 92 95 103 109 114 114 111 109 105 106 102 96 99 104 117 138 151 154 160 160 151 151 152 145
121 125 135 140 136 134 140 144 139 134 123 110 112 117 124 132 139 198 226 228 219 189 176 177 181 180 182 181 172 165 161 160 158 153 150 145 142 140 134 136 141 138 133 124 114 111 109 108 103 99 95 94 96 98 101 99 95 98 96 92 92 90 95 100 103 106 103 100 100 100 104 100 93 98 100 102 113 128 141 156 168 166 159 152 148
119 128 133 134 133 126 116 108 109 115 109 105 117 131 135 135 145 205 245 229 209 205 203 201 200 194 189 185 178 171 167 165 163 156 150 145 141 137 135 140 145 141 136 129 123 116 112 109 104 101 99 98 100 101 102 104 99 97 101 100 95 93 96 95 97 103 102 102 102 100 103 102 96 95 96 97 103 117 136 155 170 175 172 162 156
114 118 113 110 108 99 94 90 83 84 99 109 126 145 143 139 146 200 266 251 225 206 204 210 212 206 199 193 187 180 174 172 164 155 152 151 146 141 143 149 151 147 143 139 133 126 118 115 111 107 104 102 102 104 108 109 107 107 108 105 100 100 101 98 99 103 103 106 107 105 106 105 101 99 98 100 102 108 120 129 133 142 146 141 143
109 110 104 94 88 84 91 96 88 79 85 108 136 156 146 142 158 203 245 247 238 218 207 210 206 202 201 199 194 185 177 176 166 159 160 157 152 150 153 157 157 154 151 148 144 137 130 125 121 116 111 108 106 107 109 113 114 116 116 114 110 110 109 107 106 107 108 112 112 111 111 107 107 107 104 103 102 101 104 102 98 93 83 79 110
105 107 101 88 82 80 80 87 92 96 100 114 139 150 140 147 178 212 225 230 229 220 211 206 199 196 195 194 192 185 180 182 174 168 164 157 156 159 160 164 164 159 157 156 153 147 142 137 133 128 122 118 116 114 113 116 120 122 123 124 123 122 119 117 117 117 116 120 120 115 114 114 113 111 108 104 99 95 93 92 93 89 84 78 78
96 99 95 85 80 78 75 76 86 104 120 131 136 132 135 153 179 211 223 216 208 208 207 203 200 196 187 185 187 183 182 184 178 171 164 157 160 164 164 168 169 163 161 159 156 153 150 146 142 138 133 128 124 121 119 119 120 122 125 127 130 132 127 125 129 129 128 130 129 124 122 121 119 118 118 116 110 105 101 98 97 94 88 78 73
93 95 92 87 86 86 87 91 95 103 113 118 118 119 128 149 176 205 216 203 191 194 192 194 198 194 183 183 185 182 182 182 174 166 161 161 166 169 169 170 172 171 166 161 159 157 155 151 148 145 141 138 133 128 126 125 124 123 123 126 131 132 128 128 129 130 130 130 130 131 130 126 125 128 133 129 125 128 123 112 104 99 95 85 77
89 93 93 92 96 98 99 99 99 96 95 100 107 112 119 134 161 186 190 177 171 168 170 185 193 187 182 184 185 183 183 180 173 167 165 167 172 175 175 174 177 179 173 167 164 161 159 157 152 150 149 147 144 141 138 137 135 133 133 132 132 132 132 136 139 136 134 132 132 135 136 138 138 139 142 135 134 144 132 115 111 108 107 99 88
90 92 93 94 94 95 96 93 88 84 82 87 93 96 101 116 138 147 145 145 142 145 157 169 173 175 179 184 183 181 181 181 181 181 178 173 173 177 178 178 181 184 182 178 171 168 166 161 158 157 156 155 153 152 150 148 146 145 145 145 146 148 148 149 152 150 146 148 153 154 154 157 154 151 152 147 148 156 139 128 130 126 121 111 100
92 86 82 81 79 80 84 86 84 82 82 83 83 87 99 115 122 119 121 123 121 132 148 155 163 171 178 185 184 182 187 191 195 204 199 182 173 175 179 182 184 184 186 187 181 177 173 169 166 164 161 160 159 159 158 157 156 156 156 158 161 164 168 172 172 169 171 173 174 175 173 175 180 179 175 169 168 172 161 151 151 143 131 120 109
89 80 76 73 75 77 80 84 86 87 89 88 88 95 106 110 109 106 104 103 105 114 129 144 159 172 183 194 195 199 204 206 214 219 209 191 181 179 181 185 187 185 184 187 187 185 180 176 174 169 165 164 161 161 162 162 163 165 166 170 172 174 179 183 185 189 195 198 199 198 192 192 197 196 194 196 189 191 196 184 175 169 142 128 128
88 82 79 77 76 77 78 77 78 84 91 93 96 99 98 95 95 92 87 85 85 93 106 113 121 160 195 203 207 214 218 221 225 221 210 200 193 189 188 189 190 188 185 185 187 188 187 183 178 174 171 167 164 163 162 162 164 166 167 169 173 179 183 186 194 202 206 209 211 209 205 204 204 207 216 221 219 220 221 208 195 197 177 159 169
88 86 84 82 79 77 77 76 74 78 82 84 85 85 82 80 79 77 73 71 70 74 84 91 94 111 190 210 218 227 229 229 227 219 213 208 203 202 203 200 196 195 194 192 189 188 188 186 181 177 173 170 167 165 162 162 163 165 168 172 178 188 195 198 206 212 216 219 220 217 216 214 211 216 220 216 213 221 227 219 208 204 196 192 203
89 87 86 85 83 79 77 77 77 76 75 75 74 71 67 64 64 65 62 60 61 62 66 72 75 67 43 15 300 238 237 234 227 221 219 216 215 219 219 215 208 206 205 203 198 194 191 189 184 180 176 172 170 170 168 165 165 167 172 181 192 207 220 226 228 229 229 229 230 226 223 222 221 225 226 217 209 214 222 222 212 211 219 225 231
88 87 85 84 83 82 80 78 77 76 75 74 71 67 63 57 55 55 53 54 59 61 58 57 55 47 34 20 3 246 235 229 223 222 222 222 225 225 221 218 216 213 212 210 205 199 194 191 186 184 185 186 185 187 186 180 177 176 177 185 207 228 240 245 246 247 242 238 239 235 230 233 236 237 235 231 224 221 223 223 216 217 227 231 238
82 82 82 81 77 77 77 76 74 74 73 72 70 67 64 59 55 53 52 52 56 60 60 56 51 41 25 14 349 276 236 230 226 223 223 225 228 226 221 219 219 217 214 209 205 201 198 198 196 194 197 201 203 203 202 198 194 191 189 194 215 234 245 252 251 248 245 245 243 237 232 236 242 242 240 239 237 227 223 226 227 225 228 223 221
72 71 71 73 72 69 67 66 67 67 66 65 66 66 63 58 56 55 54 55 56 59 62 63 62 53 38 22 345 310 264 244 238 235 234 235 234 231 229 228 227 225 221 216 213 210 208 210 211 210 212 218 220 219 216 212 208 207 210 215 223 236 249 259 256 251 252 254 248 235 222 218 228 240 241 236 235 226 218 223 229 229 227 219 212
62 59 58 58 60 59 56 54 54 54 54 55 56 58 58 56 55 55 57 58 59 61 62 62 63 63 59 48 357 315 287 266 251 243 240 237 235 232 231 232 232 232 232 229 226 223 223 224 224 223 225 227 226 225 223 218 214 216 222 225 226 233 245 255 256 254 253 252 247 234 219 205 213 236 233 212 219 220 213 217 224 224 221 216 212
54 50 48 45 46 47 45 43 43 42 43 45 44 44 48 49 48 48 48 49 52 55 55 54 52 49 48 41 24 350 306 289 274 260 247 239 235 229 226 230 233 235 236 235 233 231 231 231 230 231 232 228 227 229 225 219 221 228 230 223 215 218 236 251 252 249 243 242 239 230 226 212 200 214 202 183 199 214 212 211 211 209 210 210 209
47 40 43 43 42 41 38 34 34 33 33 34 31 26 30 36 37 37 35 30 32 36 38 38 35 32 29 18 6 351 325 304 288 272 258 247 240 231 224 225 230 234 235 234 235 233 232 231 229 231 233 227 225 229 227 223 228 233 226 207 188 189 215 240 242 234 225 227 225 216 218 201 175 178 184 183 194 203 196 189 181 177 181 184 192
50 41 42 42 42 46 44 35 31 33 31 28 23 15 15 21 23 23 22 17 14 15 17 19 17 16 12 3 352 339 321 304 291 280 267 254 245 237 233 229 229 233 232 230 231 231 229 228 225 225 226 223 223 228 227 223 221 216 204 188 180 189 204 218 220 208 192 189 186 183 185 173 165 180 193 190 183 173 167 167 167 164 164 178 202
56 46 44 42 37 39 42 34 29 29 26 20 16 10 7 8 8 7 5 2 1 3 6 5 360 359 357 350 342 332 317 301 289 280 272 263 251 244 239 232 230 233 231 227 229 229 227 224 221 217 214 212 216 217 213 209 201 191 182 176 176 181 187 190 184 169 156 160 164 158 151 153 163 175 178 169 160 157 160 164 166 164 162 175 208
40 32 31 32 27 25 26 24 23 23 19 13 7 4 1 358 358 357 351 348 350 354 355 352 348 344 339 332 328 323 316 305 290 278 270 263 254 247 241 232 228 231 230 226 224 224 224 219 215 213 207 204 212 213 205 196 189 180 171 168 169 168 169 167 155 140 137 153 163 156 143 144 159 158 151 149 151 155 163 166 164 167 172 173 186
30 24 18 17 16 14 12 14 14 13 9 3 359 358 355 350 349 347 340 337 341 342 341 338 336 333 327 322 317 311 309 305 296 288 280 267 254 246 240 233 228 226 221 219 215 214 215 211 207 208 205 203 210 207 195 185 180 174 167 167 170 164 158 155 148 138 129 132 143 145 140 142 151 148 143 147 151 153 163 170 168 178 196 189 172
23 18 11 6 5 4 4 5 5 360 357 353 350 348 344 339 336 332 327 326 327 327 325 323 321 320 317 313 308 304 301 299 296 295 292 278 260 247 237 230 229 224 214 208 205 202 199 193 192 195 192 191 193 187 177 173 176 174 168 167 170 163 155 152 150 143 133 128 128 132 136 139 144 147 149 153 158 156 153 158 171 200 214 200 170
16 12 6 1 358 357 357 355 353 350 347 346 343 338 330 326 321 316 314 313 313 314 313 311 310 307 305 304 303 301 299 295 291 289 288 283 267 251 240 232 231 226 210 197 192 187 178 168 168 173 172 173 181 179 172 172 177 177 172 168 168 165 160 156 154 149 144 139 132 131 138 141 142 148 154 158 164 163 155 155 173 196 206 204 191
7 5 4 356 349 347 347 345 343 341 339 337 334 326 320 315 310 306 306 306 305 304 304 303 301 298 297 298 297 296 297 293 288 282 281 279 267 253 243 239 235 226 207 191 185 182 175 165 161 163 164 170 178 179 176 176 179 180 177 170 166 166 164 160 157 154 149 140 135 139 146 147 148 155 159 162 168 170 173 183 190 194 217 242 251
355 354 357 350 341 338 338 337 335 334 333 329 322 315 310 307 303 303 304 303 299 297 295 293 291 290 290 289 287 288 289 287 283 278 273 271 265 253 243 238 236 228 215 202 191 184 178 171 166 163 164 171 177 181 180 180 180 181 177 172 170 170 166 161 159 155 146 137 141 152 157 157 160 165 167 168 174 182 192 197 184 199 263 312 325
346 346 348 343 337 335 334 332 333 334 331 326 321 316 311 307 305 306 306 302 297 293 288 283 280 279 279 279 279 279 278 277 278 275 268 262 258 251 242 236 231 226 221 212 199 189 182 176 170 161 157 162 170 179 183 182 182 181 178 175 175 171 164 161 156 149 143 141 152 164 166 164 167 171 171 174 178 183 183 161 136 12 8 25 12
340 342 345 341 336 334 332 332 335 335 331 328 324 318 312 309 309 309 308 304 300 296 289 282 277 274 271 271 271 271 270 269 269 268 265 259 252 244 239 234 228 225 224 218 207 197 189 180 172 166 163 160 163 175 182 182 181 180 178 176 175 172 168 161 149 146 153 159 166 170 165 164 169 171 167 166 164 154 144 116 52 41 49 52 291
339 341 343 339 334 332 332 332 334 334 330 325 317 310 307 307 308 307 304 302 300 298 293 287 282 276 271 268 266 265 265 263 260 259 258 256 250 242 234 225 219 218 221 217 210 205 198 188 177 170 170 168 164 170 179 180 179 178 176 173 173 175 175 170 162 164 169 167 164 163 161 162 164 156 146 150 153 135 92 47 43 57 83 170 270
340 340 338 334 332 332 332 332 333 329 324 320 316 313 310 309 308 305 302 299 297 295 293 291 288 283 276 270 264 261 259 257 255 253 250 250 246 239 231 220 212 210 210 206 210 219 214 201 187 173 168 169 168 169 173 175 175 175 174 173 173 175 176 175 172 168 165 162 161 162 163 163 157 151 153 161 157 124 92 70 72 97 124 172 322
337 336 334 331 330 328 327 329 328 323 320 319 318 316 313 311 309 306 303 298 295 292 290 289 288 286 282 277 270 262 257 254 252 250 247 247 244 236 231 225 217 214 210 202 202 217 231 221 193 171 167 169 169 170 173 175 177 177 174 172 174 175 171 167 164 161 160 163 163 159 157 157 154 155 163 169 163 154 155 165 168 163 172 192 317
333 332 330 328 326 324 324 323 322 321 321 320 317 315 314 312 308 305 301 296 292 289 286 286 286 283 280 278 275 268 260 255 252 250 247 244 239 234 233 231 225 223 218 209 206 216 229 238 230 189 173 169 168 176 181 182 183 183 179 175 175 173 165 162 166 167 162 158 156 155 157 161 163 166 172 174 172 169 170 165 153 158 196 231 310
329 327 325 325 324 323 322 320 320 320 319 316 314 312 312 310 306 303 299 293 288 285 282 281 281 280 279 277 274 271 267 260 254 250 247 242 236 233 233 235 232 223 218 217 219 223 228 231 229 216 194 182 184 192 191 189 188 186 182 177 173 170 167 169 172 169 159 152 155 161 164 166 169 173 177 178 175 175 176 168 156 162 200 263 320
324 323 322 324 324 322 319 318 318 316 313 312 310 308 307 307 305 301 296 292 287 284 280 277 274 275 277 276 273 270 270 266 259 252 246 242 237 232 230 230 229 217 206 207 212 213 215 216 213 209 208 219 235 234 217 201 192 185 181 177 175 174 175 174 169 161 153 153 159 163 164 168 173 176 176 173 171 173 176 170 167 180 201 266 309